Powrót do katalogu

STARLINK-37250

AktywnyŁącznośćSSO
NORAD 68609·PAYLOAD·🇺🇸 United States

Wystrzelony Apr 5, 2026 z Vandenberg Space Force Base

Loading…

Następne Przeloty (najbliższe 24 godziny)

TLE

ŚwieżeSource: CelesTrak SupGP

Epoka: Sep 14, 2026, 21:10 UTC

1 68609C 26073H   26257.88243056  .00074968  00000+0  23283-2 0  2575
2 68609  97.2850  95.9030 0001979  92.0450 310.4944 15.33384525    19

Śledź STARLINK-37250 w czasie rzeczywistym z AllMySat

Download on the App Store